DW9417 Weather Reports


time (UTC)temp
C
wind
direction
speed
KPH
gust
KPH
rain 1hr
cm
rain 24hr
cm
rain mn
cm
humidity
%
barometer
mb
20260510011515 15 309 6.4 17.7 0.00 0.00 0.00 57 1027.6
20260510010010 15 21 6.4 19.3 0.00 0.00 0.00 59 1027.7
20260510004505 14 34 1.6 12.9 0.00 0.00 0.00 62 1027.8
20260510003103 13 42 1.6 8.0 0.00 0.00 0.00 66 1027.9
20260510001555 12 36 3.2 12.9 0.00 0.00 0.00 68 1028.0
20260510000058 11 13 0.0 4.8 0.00 0.00 0.00 71 1028.0
20260509233009 10 17 0.0 3.2 0.00 0.00 0.00 73 1027.9
20260509231507 10 42 0.0 3.2 0.00 0.00 0.00 73 1027.8
20260509230009 10 360 3.2 8.0 0.00 0.00 0.00 73 1027.8
20260509224508 10 38 0.0 4.8 0.00 0.00 0.00 72 1027.6
20260509223004 10 40 0.0 6.4 0.00 0.00 0.00 72 1027.4
20260509221502 10 12 0.0 3.2 0.00 0.00 0.00 73 1027.3
20260509220005 9 5 0.0 4.8 0.00 0.00 0.00 73 1027.3
20260509214631 10 351 0.0 6.4 0.00 0.00 0.00 73 1027.1
20260509213100 9 351 0.0 3.2 0.00 0.00 0.00 73 1026.9
20260509211556 9 342 0.0 6.4 0.00 0.00 0.00 73 1026.9
20260509210106 9 342 0.0 3.2 0.00 0.00 0.00 72 1026.9
20260509204555 10 341 0.0 4.8 0.00 0.00 0.00 71 1026.8
20260509203102 10 341 1.6 6.4 0.00 0.00 0.00 71 1026.7
20260509201553 10 350 1.6 6.4 0.00 0.00 0.00 70 1026.6
20260509200055 10 343 1.6 6.4 0.00 0.00 0.00 70 1026.5
20260509194552 10 342 0.0 6.4 0.00 0.00 0.00 70 1026.5
20260509193056 10 96 1.6 3.2 0.00 0.00 0.00 70 1026.5
20260509191600 10 96 0.0 3.2 0.00 0.00 0.00 70 1026.5
20260509190053 10 96 0.0 0.0 0.00 0.00 0.00 70 1026.5
20260509184558 10 96 0.0 0.0 0.00 0.00 0.00 69 1026.7
20260509183052 10 95 0.0 3.2 0.00 0.00 0.00 70 1026.6
20260509181545 10 94 0.0 1.6 0.00 0.00 0.00 69 1026.6
20260509180044 10 94 0.0 1.6 0.00 0.00 0.00 70 1026.4
20260509174559 10 92 0.0 1.6 0.00 0.00 0.00 70 1026.4
20260509173049 9 87 0.0 1.6 0.00 0.00 0.00 70 1026.4
20260509171538 8 88 0.0 1.6 0.00 0.00 0.00 71 1026.4
20260509170034 7 90 0.0 0.0 0.00 0.00 0.00 72 1026.5
20260509164530 7 88 0.0 0.0 0.00 0.00 0.00 73 1026.6
20260509163037 7 87 0.0 0.0 0.00 0.00 0.00 71 1026.6
20260509161526 7 88 0.0 0.0 0.00 0.00 0.00 70 1026.5
20260509160023 7 89 0.0 0.0 0.00 0.00 0.00 72 1026.4
20260509154525 7 88 0.0 0.0 0.00 0.00 0.00 70 1026.3
20260509153031 7 89 0.0 0.0 0.00 0.00 0.00 70 1026.3
20260509151519 7 88 0.0 0.0 0.00 0.00 0.00 69 1026.3
20260509150019 7 89 0.0 0.0 0.00 0.00 0.00 68 1026.4
20260509144524 8 83 0.0 0.0 0.00 0.00 0.00 67 1026.6
20260509143017 8 88 0.0 0.0 0.00 0.00 0.00 67 1026.4
20260509141516 8 75 0.0 0.0 0.00 0.00 0.00 66 1026.5
20260509140015 8 88 0.0 0.0 0.00 0.00 0.00 68 1026.4
20260509134515 8 88 0.0 0.0 0.00 0.00 0.00 67 1026.4
20260509133014 8 86 0.0 0.0 0.00 0.00 0.00 67 1026.5
20260509131514 8 84 0.0 0.0 0.00 0.00 0.00 66 1026.5
20260509130024 8 87 0.0 0.0 0.00 0.00 0.00 65 1026.5
20260509124508 8 88 0.0 0.0 0.00 0.00 0.00 65 1026.4
20260509123008 9 86 0.0 0.0 0.00 0.00 0.00 64 1026.4
20260509121510 9 78 0.0 0.0 0.00 0.00 0.00 64 1026.5
20260509120006 9 88 0.0 0.0 0.00 0.00 0.00 61 1026.4
20260509114506 10 88 0.0 0.0 0.00 0.00 0.00 59 1026.6
20260509113005 10 72 0.0 0.0 0.00 0.00 0.00 56 1026.6
20260509111505 11 88 0.0 0.0 0.00 0.00 0.00 54 1026.5
20260509110005 12 88 0.0 0.0 0.00 0.00 0.00 52 1026.5
20260509104509 12 88 0.0 0.0 0.00 0.00 0.00 50 1026.4
20260509103003 13 96 0.0 0.0 0.00 0.00 0.00 48 1026.2
20260509101509 15 96 0.0 3.2 0.00 0.00 0.00 46 1026.1
20260509100002 16 96 1.6 4.8 0.00 0.00 0.00 43 1025.9
20260509094501 17 71 1.6 9.7 0.00 0.00 0.00 41 1025.8
20260509093002 18 77 4.8 8.0 0.00 0.00 0.00 37 1025.6
20260509091608 19 61 4.8 9.7 0.00 0.00 0.00 36 1025.5
20260509090107 20 82 3.2 11.3 0.00 0.00 0.00 34 1025.5
20260509084603 21 49 3.2 14.5 0.00 0.00 0.00 33 1025.3
20260509083103 21 86 4.8 17.7 0.00 0.00 0.00 33 1025.1
20260509081557 21 40 4.8 19.3 0.00 0.00 0.00 33 1024.9
20260509080059 21 82 4.8 14.5 0.00 0.00 0.00 32 1024.9
20260509074558 21 53 3.2 16.1 0.00 0.00 0.00 32 1024.8
20260509073056 21 98 9.7 16.1 0.00 0.00 0.00 31 1024.9
20260509071554 21 92 6.4 16.1 0.00 0.00 0.00 32 1024.9
20260509070054 21 41 4.8 12.9 0.00 0.00 0.00 31 1025.0
20260509064553 21 44 4.8 17.7 0.00 0.00 0.00 32 1025.0
20260509063051 21 45 4.8 16.1 0.00 0.00 0.00 33 1025.1
20260509061549 21 159 6.4 16.1 0.00 0.00 0.00 32 1025.0
20260509060105 21 44 3.2 14.5 0.00 0.00 0.00 32 1025.2
20260509054549 21 47 4.8 14.5 0.00 0.00 0.00 32 1025.5
20260509053109 21 71 6.4 14.5 0.00 0.00 0.00 33 1025.6
20260509051550 21 71 3.2 16.1 0.00 0.00 0.00 34 1025.8
20260509050040 21 28 11.3 20.9 0.00 0.00 0.00 34 1026.2
20260509044541 21 49 4.8 16.1 0.00 0.00 0.00 35 1026.4
20260509043036 20 355 4.8 17.7 0.00 0.00 0.00 36 1026.7
20260509041531 20 18 8.0 16.1 0.00 0.00 0.00 38 1027.1
20260509040031 20 324 3.2 14.5 0.00 0.00 0.00 40 1027.5
20260509034524 19 13 6.4 14.5 0.00 0.00 0.00 42 1027.7
20260509033123 19 59 6.4 20.9 0.00 0.00 0.00 42 1028.0
20260509031516 18 348 4.8 30.6 0.00 0.00 0.00 43 1028.1
20260509030026 18 21 3.2 17.7 0.00 0.00 0.00 47 1028.4
20260509024514 17 46 4.8 17.7 0.00 0.00 0.00 47 1028.6
20260509023010 17 22 6.4 17.7 0.00 0.00 0.00 49 1028.8
20260509021505 17 5 6.4 20.9 0.00 0.00 0.00 51 1028.9
20260509020109 16 107 11.3 20.9 0.00 0.00 0.00 52 1028.9
20260509014557 15 53 6.4 20.9 0.00 0.00 0.00 55 1029.1
20260509013058 15 36 11.3 22.5 0.00 0.00 0.00 56 1029.1